Location: Daytona Beach
(29.2106°N, 81.0231°W)
Time: 12:23:53
(UTC-04:00)

PSAT 2 - Pass Details

Date: 28 September 2021
Orbit: 299 x 724 km, 28.5° (Epoch: 18 October)

Event Time Altitude Azimuth Distance (km) Brightness Sun altitude
Rises 19:46:16 0° 275° (W) 3,006 ? -8.1°
Reaches altitude 10° 19:48:43 10° 268° (W) 2,139 ? -8.6°
Maximum altitude 19:53:31 41° 199° (SSW) 1,032 ? -9.7°
Drops below altitude 10° 19:58:30 10° 130° (SE) 2,219 ? -10.8°
Enters shadow 19:58:53 - 128° (SE) 2,353 ? -10.9°
